Time,TemperatureF,DewpointF,PressureIn,WindDirection,WindDirectionDegrees,WindSpeedMPH,WindSpeedGustMPH,Humidity,HourlyPrecipIn,Conditions,Clouds,dailyrainin,SoftwareType,DateUTC
2013-07-05 00:01:00,66.9,66.9,30.00,ENE,75,0.0,0.0,100,0.00,,,0.00,Wunderground v.1.15,2013-07-05 04:01:00,
2013-07-05 00:02:00,66.9,66.9,30.00,ENE,75,0.0,0.0,100,0.00,,,0.00,Wunderground v.1.15,2013-07-05 04:02:00,
2013-07-05 00:03:00,66.9,66.9,30.00,ENE,75,0.0,0.0,100,0.00,,,0.00,Wunderground v.1.15,2013-07-05 04:03:00,
2013-07-05 00:04:00,66.9,66.9,30.00,ENE,75,0.0,0.0,100,0.00,,,0.00,Wunderground v.1.15,2013-07-05 04:04:00,
2013-07-05 00:09:00,66.8,66.8,30.00,ENE,75,0.0,0.0,100,0.00,,,0.00,Wunderground v.1.15,2013-07-05 04:09:00,
2013-07-05 00:12:00,66.6,66.6,30.00,ENE,75,0.0,0.0,100,0.00,,,0.00,Wunderground v.1.15,2013-07-05 04:12:00,
2013-07-05 00:18:00,66.4,66.4,30.00,ENE,75,0.0,0.0,100,0.00,,,0.00,Wunderground v.1.15,2013-07-05 04:18:00,
2013-07-05 00:23:00,66.4,66.4,30.00,ENE,75,0.0,0.0,100,0.00,,,0.00,Wunderground v.1.15,2013-07-05 04:23:00,
2013-07-05 00:29:00,66.4,66.4,30.00,ENE,75,0.0,0.0,100,0.00,,,0.00,Wunderground v.1.15,2013-07-05 04:29:00,
2013-07-05 00:35:00,66.4,66.4,30.00,ENE,75,0.0,0.0,100,0.00,,,0.00,Wunderground v.1.15,2013-07-05 04:35:00,
2013-07-05 00:40:00,66.3,66.3,30.00,ENE,75,0.0,0.0,100,0.00,,,0.00,Wunderground v.1.15,2013-07-05 04:40:00,
2013-07-05 00:46:00,66.3,66.3,30.00,ENE,75,0.0,0.0,100,0.00,,,0.00,Wunderground v.1.15,2013-07-05 04:46:00,
2013-07-05 00:51:00,66.3,66.3,30.00,ENE,75,0.0,0.0,100,0.00,,,0.00,Wunderground v.1.15,2013-07-05 04:51:00,
2013-07-05 00:57:00,66.1,66.1,30.00,ENE,75,0.0,0.0,100,0.00,,,0.00,Wunderground v.1.15,2013-07-05 04:57:00,
2013-07-05 01:02:00,66.1,66.1,30.00,ENE,75,0.0,0.0,100,0.00,,,0.00,Wunderground v.1.15,2013-07-05 05:02:00,
2013-07-05 01:08:00,66.1,66.1,30.00,ENE,75,0.0,0.0,100,0.00,,,0.00,Wunderground v.1.15,2013-07-05 05:08:00,
2013-07-05 01:13:00,66.0,66.0,30.00,ENE,75,0.0,0.0,100,0.00,,,0.00,Wunderground v.1.15,2013-07-05 05:13:00,
2013-07-05 01:18:00,66.0,66.0,29.99,ENE,75,0.0,0.0,100,0.00,,,0.00,Wunderground v.1.15,2013-07-05 05:18:00,
2013-07-05 01:24:00,65.8,65.8,29.99,ENE,75,0.0,0.0,100,0.00,,,0.00,Wunderground v.1.15,2013-07-05 05:24:00,
2013-07-05 01:29:00,65.8,65.8,29.99,ENE,75,0.0,0.0,100,0.00,,,0.00,Wunderground v.1.15,2013-07-05 05:29:00,
2013-07-05 01:34:00,65.6,65.6,29.99,ENE,75,0.0,0.0,100,0.00,,,0.00,Wunderground v.1.15,2013-07-05 05:34:00,
2013-07-05 01:40:00,65.6,65.6,29.99,ENE,75,0.0,0.0,100,0.00,,,0.00,Wunderground v.1.15,2013-07-05 05:40:00,
2013-07-05 01:45:00,65.5,65.5,29.99,ENE,75,0.0,0.0,100,0.00,,,0.00,Wunderground v.1.15,2013-07-05 05:45:00,
2013-07-05 01:50:00,65.5,65.5,29.99,ENE,75,0.0,0.0,100,0.00,,,0.00,Wunderground v.1.15,2013-07-05 05:50:00,
2013-07-05 01:56:00,65.3,65.3,29.99,ENE,75,0.0,0.0,100,0.00,,,0.00,Wunderground v.1.15,2013-07-05 05:56:00,
2013-07-05 02:02:00,65.3,65.3,29.99,ENE,75,0.0,0.0,100,0.00,,,0.00,Wunderground v.1.15,2013-07-05 06:02:00,
2013-07-05 02:07:00,65.3,65.3,29.99,ENE,75,0.0,0.0,100,0.00,,,0.00,Wunderground v.1.15,2013-07-05 06:07:00,
2013-07-05 02:13:00,65.2,65.2,29.99,ENE,75,0.0,0.0,100,0.00,,,0.00,Wunderground v.1.15,2013-07-05 06:13:00,
2013-07-05 02:19:00,65.2,65.2,29.99,ENE,75,0.0,0.0,100,0.00,,,0.00,Wunderground v.1.15,2013-07-05 06:19:00,
2013-07-05 02:24:00,65.2,65.2,29.99,ENE,75,0.0,0.0,100,0.00,,,0.00,Wunderground v.1.15,2013-07-05 06:24:00,
2013-07-05 02:29:00,65.2,65.2,29.99,ENE,75,0.0,0.0,100,0.00,,,0.00,Wunderground v.1.15,2013-07-05 06:29:00,
2013-07-05 02:35:00,65.0,65.0,29.98,ENE,75,0.0,0.0,100,0.00,,,0.00,Wunderground v.1.15,2013-07-05 06:35:00,
2013-07-05 02:40:00,64.8,64.8,29.98,ENE,75,0.0,0.0,100,0.00,,,0.00,Wunderground v.1.15,2013-07-05 06:40:00,
2013-07-05 02:45:00,64.8,64.8,29.99,ENE,75,0.0,0.0,100,0.00,,,0.00,Wunderground v.1.15,2013-07-05 06:45:00,
2013-07-05 02:51:00,64.7,64.7,29.99,ENE,75,0.0,0.0,100,0.00,,,0.00,Wunderground v.1.15,2013-07-05 06:51:00,
2013-07-05 02:57:00,64.7,64.7,29.99,ENE,75,0.0,0.0,100,0.00,,,0.00,Wunderground v.1.15,2013-07-05 06:57:00,
2013-07-05 03:03:00,64.5,64.5,29.98,ENE,75,0.0,0.0,100,0.00,,,0.00,Wunderground v.1.15,2013-07-05 07:03:00,
2013-07-05 03:09:00,64.5,64.5,29.98,ENE,75,0.0,0.0,100,0.00,,,0.00,Wunderground v.1.15,2013-07-05 07:09:00,
2013-07-05 03:14:00,64.3,64.3,29.98,ENE,75,0.0,0.0,100,0.00,,,0.00,Wunderground v.1.15,2013-07-05 07:14:00,
2013-07-05 03:20:00,64.2,64.2,29.98,ENE,75,0.0,0.0,100,0.00,,,0.00,Wunderground v.1.15,2013-07-05 07:20:00,
2013-07-05 03:26:00,64.2,64.2,29.98,ENE,75,0.0,0.0,100,0.00,,,0.00,Wunderground v.1.15,2013-07-05 07:26:00,
2013-07-05 03:32:00,64.2,64.2,29.98,ENE,75,0.0,0.0,100,0.00,,,0.00,Wunderground v.1.15,2013-07-05 07:32:00,
2013-07-05 03:37:00,64.0,64.0,29.98,ENE,75,0.0,0.0,100,0.00,,,0.00,Wunderground v.1.15,2013-07-05 07:37:00,
2013-07-05 03:42:00,64.0,64.0,29.98,ENE,75,0.0,0.0,100,0.00,,,0.00,Wunderground v.1.15,2013-07-05 07:42:00,
2013-07-05 03:48:00,63.9,63.9,29.98,ENE,75,0.0,0.0,100,0.00,,,0.00,Wunderground v.1.15,2013-07-05 07:48:00,
2013-07-05 03:54:00,63.9,63.9,29.98,ENE,75,0.0,0.0,100,0.00,,,0.00,Wunderground v.1.15,2013-07-05 07:54:00,
2013-07-05 03:59:00,63.9,63.9,29.98,ENE,75,0.0,0.0,100,0.00,,,0.00,Wunderground v.1.15,2013-07-05 07:59:00,
2013-07-05 04:04:00,63.7,63.7,29.98,ENE,75,0.0,0.0,100,0.00,,,0.00,Wunderground v.1.15,2013-07-05 08:04:00,
2013-07-05 04:10:00,63.7,63.7,29.98,ENE,75,0.0,0.0,100,0.00,,,0.00,Wunderground v.1.15,2013-07-05 08:10:00,
2013-07-05 04:15:00,63.7,63.7,29.98,ENE,75,0.0,0.0,100,0.00,,,0.00,Wunderground v.1.15,2013-07-05 08:15:00,
2013-07-05 04:21:00,63.5,63.5,29.98,ENE,75,0.0,0.0,100,0.00,,,0.00,Wunderground v.1.15,2013-07-05 08:21:00,
2013-07-05 04:27:00,63.5,63.5,29.98,ENE,75,0.0,0.0,100,0.00,,,0.00,Wunderground v.1.15,2013-07-05 08:27:00,
2013-07-05 04:34:00,63.5,63.5,29.98,ENE,75,0.0,0.0,100,0.00,,,0.00,Wunderground v.1.15,2013-07-05 08:34:00,
2013-07-05 04:39:00,63.5,63.5,29.98,ENE,75,0.0,0.0,100,0.00,,,0.00,Wunderground v.1.15,2013-07-05 08:39:00,
2013-07-05 04:44:00,63.5,63.5,29.98,ENE,75,0.0,0.0,100,0.00,,,0.00,Wunderground v.1.15,2013-07-05 08:44:00,
2013-07-05 04:50:00,63.4,63.4,29.98,ENE,75,0.0,0.0,100,0.00,,,0.00,Wunderground v.1.15,2013-07-05 08:50:00,
2013-07-05 04:55:00,63.2,63.2,29.98,ENE,75,0.0,0.0,100,0.00,,,0.00,Wunderground v.1.15,2013-07-05 08:55:00,
2013-07-05 05:02:00,63.2,63.2,29.99,ENE,75,0.0,0.0,100,0.00,,,0.00,Wunderground v.1.15,2013-07-05 09:02:00,
2013-07-05 05:07:00,63.2,63.2,29.99,ENE,75,0.0,0.0,100,0.00,,,0.00,Wunderground v.1.15,2013-07-05 09:07:00,
2013-07-05 05:12:00,63.1,63.1,29.99,ENE,75,0.0,0.0,100,0.00,,,0.00,Wunderground v.1.15,2013-07-05 09:12:00,
2013-07-05 05:18:00,63.1,63.1,30.00,ENE,75,0.0,0.0,100,0.00,,,0.00,Wunderground v.1.15,2013-07-05 09:18:00,
2013-07-05 05:24:00,63.1,63.1,30.00,ENE,75,0.0,0.0,100,0.00,,,0.00,Wunderground v.1.15,2013-07-05 09:24:00,
2013-07-05 05:29:00,63.1,63.1,30.00,ENE,75,0.0,0.0,100,0.00,,,0.00,Wunderground v.1.15,2013-07-05 09:29:00,
2013-07-05 05:35:00,63.1,63.1,30.00,ENE,75,0.0,0.0,100,0.00,,,0.00,Wunderground v.1.15,2013-07-05 09:35:00,
2013-07-05 05:41:00,63.1,63.1,30.00,ENE,75,0.0,0.0,100,0.00,,,0.00,Wunderground v.1.15,2013-07-05 09:41:00,
2013-07-05 05:49:00,62.9,62.9,30.00,ENE,75,0.0,0.0,100,0.00,,,0.00,Wunderground v.1.15,2013-07-05 09:49:00,
2013-07-05 05:54:00,62.9,62.9,30.00,ENE,75,0.0,0.0,100,0.00,,,0.00,Wunderground v.1.15,2013-07-05 09:54:00,
2013-07-05 05:59:00,62.9,62.9,30.00,ENE,75,0.0,0.0,100,0.00,,,0.00,Wunderground v.1.15,2013-07-05 09:59:00,
2013-07-05 06:05:00,62.7,62.7,30.00,ENE,75,0.0,0.0,100,0.00,,,0.00,Wunderground v.1.15,2013-07-05 10:05:00,
2013-07-05 06:11:00,62.7,62.7,30.00,ENE,75,0.0,0.0,100,0.00,,,0.00,Wunderground v.1.15,2013-07-05 10:11:00,
2013-07-05 06:17:00,62.7,62.7,30.00,ENE,75,0.0,0.0,100,0.00,,,0.00,Wunderground v.1.15,2013-07-05 10:17:00,
2013-07-05 06:23:00,62.7,62.7,30.00,ENE,75,0.0,0.0,100,0.00,,,0.00,Wunderground v.1.15,2013-07-05 10:23:00,
2013-07-05 06:29:00,62.6,62.6,30.00,ENE,75,0.0,0.0,100,0.00,,,0.00,Wunderground v.1.15,2013-07-05 10:29:00,
2013-07-05 06:34:00,62.4,62.4,30.00,ENE,75,0.0,0.0,100,0.00,,,0.00,Wunderground v.1.15,2013-07-05 10:34:00,
2013-07-05 06:40:00,62.4,62.4,30.00,ENE,75,0.0,0.0,100,0.00,,,0.00,Wunderground v.1.15,2013-07-05 10:40:00,
2013-07-05 06:46:00,62.4,62.4,30.00,ENE,75,0.0,0.0,100,0.00,,,0.00,Wunderground v.1.15,2013-07-05 10:46:00,
2013-07-05 06:51:00,62.4,62.4,30.00,ENE,75,0.0,0.0,100,0.00,,,0.00,Wunderground v.1.15,2013-07-05 10:51:00,
2013-07-05 06:57:00,62.4,62.4,30.00,ENE,75,0.0,0.0,100,0.00,,,0.00,Wunderground v.1.15,2013-07-05 10:57:00,
2013-07-05 07:04:00,62.4,62.4,30.00,ENE,75,0.0,0.0,100,0.00,,,0.00,Wunderground v.1.15,2013-07-05 11:04:00,
2013-07-05 07:10:00,62.4,62.4,30.00,ENE,75,0.0,0.0,100,0.00,,,0.00,Wunderground v.1.15,2013-07-05 11:10:00,
2013-07-05 07:15:00,62.6,62.6,30.00,ENE,75,0.0,0.0,100,0.00,,,0.00,Wunderground v.1.15,2013-07-05 11:15:00,
2013-07-05 07:21:00,62.6,62.6,30.00,ENE,75,0.0,0.0,100,0.00,,,0.00,Wunderground v.1.15,2013-07-05 11:21:00,
2013-07-05 07:29:00,62.7,62.7,30.00,ENE,75,0.0,0.0,100,0.00,,,0.00,Wunderground v.1.15,2013-07-05 11:29:00,
2013-07-05 07:34:00,62.9,62.9,30.00,ENE,75,0.0,0.0,100,0.00,,,0.00,Wunderground v.1.15,2013-07-05 11:34:00,
2013-07-05 07:40:00,63.1,63.1,30.00,ENE,75,0.0,0.0,100,0.00,,,0.00,Wunderground v.1.15,2013-07-05 11:40:00,
2013-07-05 07:49:00,63.4,63.4,30.01,ENE,75,0.0,0.0,100,0.00,,,0.00,Wunderground v.1.15,2013-07-05 11:49:00,
2013-07-05 07:55:00,63.9,63.9,30.01,ENE,76,0.0,0.0,100,0.00,,,0.00,Wunderground v.1.15,2013-07-05 11:55:00,
2013-07-05 08:00:00,64.0,64.0,30.01,ENE,76,0.0,0.0,100,0.00,,,0.00,Wunderground v.1.15,2013-07-05 12:00:00,
2013-07-05 08:06:00,64.2,64.2,30.01,ENE,76,0.0,0.0,100,0.00,,,0.00,Wunderground v.1.15,2013-07-05 12:06:00,
2013-07-05 08:11:00,64.5,64.5,30.01,ENE,76,0.0,0.0,100,0.00,,,0.00,Wunderground v.1.15,2013-07-05 12:11:00,
2013-07-05 08:16:00,64.5,64.5,30.01,ENE,75,0.0,0.0,100,0.00,,,0.00,Wunderground v.1.15,2013-07-05 12:16:00,
2013-07-05 08:24:00,65.2,65.2,30.01,ENE,76,0.0,0.0,100,0.00,,,0.00,Wunderground v.1.15,2013-07-05 12:24:00,
2013-07-05 08:29:00,65.3,65.3,30.01,ENE,76,0.0,0.0,100,0.00,,,0.00,Wunderground v.1.15,2013-07-05 12:29:00,
2013-07-05 08:34:00,65.5,65.5,30.02,ENE,76,0.0,0.0,100,0.00,,,0.00,Wunderground v.1.15,2013-07-05 12:34:00,
2013-07-05 08:40:00,65.8,65.8,30.02,ENE,76,0.0,0.0,100,0.00,,,0.00,Wunderground v.1.15,2013-07-05 12:40:00,
2013-07-05 08:45:00,65.8,65.8,30.02,ENE,76,0.0,0.0,100,0.00,,,0.00,Wunderground v.1.15,2013-07-05 12:45:00,
2013-07-05 08:50:00,66.0,66.0,30.02,ENE,76,0.0,0.0,100,0.00,,,0.00,Wunderground v.1.15,2013-07-05 12:50:00,
2013-07-05 08:55:00,66.0,66.0,30.02,ENE,75,0.0,0.0,100,0.00,,,0.00,Wunderground v.1.15,2013-07-05 12:55:00,
2013-07-05 09:01:00,66.4,66.4,30.02,ENE,75,0.0,0.0,100,0.00,,,0.00,Wunderground v.1.15,2013-07-05 13:01:00,
2013-07-05 09:07:00,66.4,66.4,30.02,ENE,75,0.0,0.0,100,0.00,,,0.00,Wunderground v.1.15,2013-07-05 13:07:00,
2013-07-05 09:12:00,66.8,66.8,30.02,ENE,75,0.0,0.0,100,0.00,,,0.00,Wunderground v.1.15,2013-07-05 13:12:00,
2013-07-05 09:18:00,67.3,67.3,30.03,ENE,76,0.0,0.0,100,0.00,,,0.00,Wunderground v.1.15,2013-07-05 13:18:00,
2013-07-05 09:24:00,67.1,67.1,30.03,ENE,75,0.0,0.0,100,0.00,,,0.00,Wunderground v.1.15,2013-07-05 13:24:00,
2013-07-05 09:29:00,67.6,67.6,30.03,ENE,75,0.0,0.0,100,0.00,,,0.00,Wunderground v.1.15,2013-07-05 13:29:00,
2013-07-05 09:35:00,68.1,68.1,30.03,ENE,75,0.0,0.0,100,0.00,,,0.00,Wunderground v.1.15,2013-07-05 13:35:00,
2013-07-05 09:40:00,68.8,68.8,30.03,ENE,73,0.0,0.0,100,0.00,,,0.00,Wunderground v.1.15,2013-07-05 13:40:00,
2013-07-05 09:46:00,68.9,68.9,30.03,ENE,75,0.0,0.0,100,0.00,,,0.00,Wunderground v.1.15,2013-07-05 13:46:00,
2013-07-05 09:54:00,69.6,69.6,30.03,ENE,75,0.0,0.0,100,0.00,,,0.00,Wunderground v.1.15,2013-07-05 13:54:00,
2013-07-05 10:01:00,70.1,70.1,30.03,ENE,75,0.0,0.0,100,0.00,,,0.00,Wunderground v.1.15,2013-07-05 14:01:00,
2013-07-05 10:06:00,70.4,70.4,30.03,ENE,75,0.0,0.0,100,0.00,,,0.00,Wunderground v.1.15,2013-07-05 14:06:00,
2013-07-05 10:11:00,70.9,70.9,30.03,NNE,14,0.0,0.0,100,0.00,,,0.00,Wunderground v.1.15,2013-07-05 14:11:00,
2013-07-05 10:17:00,71.3,71.3,30.03,NE,42,0.0,0.0,100,0.00,,,0.00,Wunderground v.1.15,2013-07-05 14:17:00,
2013-07-05 10:24:00,71.8,71.8,30.03,ENE,64,0.0,2.0,100,0.00,,,0.00,Wunderground v.1.15,2013-07-05 14:24:00,
2013-07-05 10:29:00,72.1,72.1,30.03,NNE,28,0.0,2.0,100,0.00,,,0.00,Wunderground v.1.15,2013-07-05 14:29:00,
2013-07-05 10:35:00,72.5,72.5,30.03,NNE,18,0.0,0.0,100,0.00,,,0.00,Wunderground v.1.15,2013-07-05 14:35:00,
2013-07-05 10:41:00,72.8,72.8,30.03,NNE,18,0.0,0.0,100,0.00,,,0.00,Wunderground v.1.15,2013-07-05 14:41:00,
2013-07-05 10:47:00,73.2,71.7,30.03,NNE,18,0.0,0.0,95,0.00,,,0.00,Wunderground v.1.15,2013-07-05 14:47:00,
2013-07-05 10:52:00,73.3,73.3,30.03,NNE,18,0.0,0.0,100,0.00,,,0.00,Wunderground v.1.15,2013-07-05 14:52:00,
2013-07-05 10:58:00,73.7,72.8,30.03,North,10,0.0,2.0,97,0.00,,,0.00,Wunderground v.1.15,2013-07-05 14:58:00,
2013-07-05 11:04:00,73.7,71.9,30.02,NE,34,0.0,0.0,94,0.00,,,0.00,Wunderground v.1.15,2013-07-05 15:04:00,
2013-07-05 11:09:00,74.0,73.4,30.02,NNE,32,0.0,0.0,98,0.00,,,0.00,Wunderground v.1.15,2013-07-05 15:09:00,
2013-07-05 11:14:00,74.2,74.2,30.02,NNE,21,0.0,0.0,100,0.00,,,0.00,Wunderground v.1.15,2013-07-05 15:14:00,
2013-07-05 11:20:00,74.6,72.4,30.03,North,7,0.0,0.0,93,0.00,,,0.00,Wunderground v.1.15,2013-07-05 15:20:00,
2013-07-05 11:26:00,75.1,71.6,30.03,North,11,0.0,0.0,89,0.00,,,0.00,Wunderground v.1.15,2013-07-05 15:26:00,
2013-07-05 11:31:00,75.4,72.9,30.03,North,11,0.0,0.0,92,0.00,,,0.00,Wunderground v.1.15,2013-07-05 15:31:00,
2013-07-05 11:37:00,75.6,70.8,30.03,NNE,16,0.0,2.0,85,0.00,,,0.00,Wunderground v.1.15,2013-07-05 15:37:00,
2013-07-05 11:43:00,75.8,69.9,30.03,NNE,16,0.0,0.0,82,0.00,,,0.00,Wunderground v.1.15,2013-07-05 15:43:00,
2013-07-05 11:48:00,76.0,69.4,30.03,NNE,16,0.0,0.0,80,0.00,,,0.00,Wunderground v.1.15,2013-07-05 15:48:00,
2013-07-05 11:50:00,76.0,70.1,30.03,NNE,16,0.0,1.0,82,0.00,,,0.00,Wunderground v.1.15,2013-07-05 15:50:00,
2013-07-05 11:56:00,76.3,67.4,30.03,NNE,28,1.0,5.0,74,0.00,,,0.00,Wunderground v.1.15,2013-07-05 15:56:00,
2013-07-05 12:01:00,76.5,69.5,30.03,NNE,25,1.0,1.0,79,0.00,,,0.00,Wunderground v.1.15,2013-07-05 16:01:00,
2013-07-05 12:06:00,76.7,65.3,30.03,NNE,27,0.0,3.0,68,0.00,,,0.00,Wunderground v.1.15,2013-07-05 16:06:00,
2013-07-05 12:12:00,77.0,68.1,30.03,NNE,23,0.0,0.0,74,0.00,,,0.00,Wunderground v.1.15,2013-07-05 16:12:00,
2013-07-05 12:18:00,76.8,66.7,30.03,NNE,25,0.0,0.0,71,0.00,,,0.00,Wunderground v.1.15,2013-07-05 16:18:00,
2013-07-05 12:23:00,76.8,67.5,30.03,NNE,25,0.0,3.0,73,0.00,,,0.00,Wunderground v.1.15,2013-07-05 16:23:00,
2013-07-05 12:29:00,77.4,66.0,30.03,NNE,24,1.0,3.0,68,0.00,,,0.00,Wunderground v.1.15,2013-07-05 16:29:00,
2013-07-05 12:35:00,77.2,66.2,30.02,NNE,25,2.0,3.0,69,0.00,,,0.00,Wunderground v.1.15,2013-07-05 16:35:00,
2013-07-05 12:41:00,77.2,65.8,30.02,NNE,25,1.0,1.0,68,0.00,,,0.00,Wunderground v.1.15,2013-07-05 16:41:00,
2013-07-05 12:46:00,77.7,65.9,30.02,NNE,23,0.0,3.0,67,0.00,,,0.00,Wunderground v.1.15,2013-07-05 16:46:00,
2013-07-05 13:11:00,78.3,65.1,30.01,NNE,28,0.0,6.0,64,0.00,,,0.00,Wunderground v.1.15,2013-07-05 17:11:00,
2013-07-05 13:17:00,78.8,64.7,30.01,NNE,21,0.0,6.0,62,0.00,,,0.00,Wunderground v.1.15,2013-07-05 17:17:00,
2013-07-05 13:22:00,79.2,66.4,30.01,NNE,21,0.0,6.0,65,0.00,,,0.00,Wunderground v.1.15,2013-07-05 17:22:00,
2013-07-05 13:28:00,79.2,66.4,30.01,NNE,24,0.0,6.0,65,0.00,,,0.00,Wunderground v.1.15,2013-07-05 17:28:00,
2013-07-05 13:33:00,79.0,62.0,30.01,North,7,0.0,6.0,56,0.00,,,0.00,Wunderground v.1.15,2013-07-05 17:33:00,
2013-07-05 13:38:00,79.0,62.0,30.01,North,10,1.0,6.0,56,0.00,,,0.00,Wunderground v.1.15,2013-07-05 17:38:00,
2013-07-05 13:44:00,79.2,63.1,30.01,North,10,0.0,6.0,58,0.00,,,0.00,Wunderground v.1.15,2013-07-05 17:44:00,
2013-07-05 13:49:00,79.2,62.7,30.01,North,8,0.0,6.0,57,0.00,,,0.00,Wunderground v.1.15,2013-07-05 17:49:00,
2013-07-05 13:55:00,79.2,60.1,30.01,North,8,0.0,6.0,52,0.00,,,0.00,Wunderground v.1.15,2013-07-05 17:55:00,
2013-07-05 14:01:00,79.2,57.8,30.01,North,8,1.0,1.0,48,0.00,,,0.00,Wunderground v.1.15,2013-07-05 18:01:00,
2013-07-05 14:06:00,79.2,54.8,30.01,North,8,1.0,6.0,43,0.00,,,0.00,Wunderground v.1.15,2013-07-05 18:06:00,
2013-07-05 14:12:00,79.4,58.6,30.01,North,8,0.0,0.0,49,0.00,,,0.00,Wunderground v.1.15,2013-07-05 18:12:00,
2013-07-05 14:17:00,79.8,62.2,30.01,North,8,0.0,0.0,55,0.00,,,0.00,Wunderground v.1.15,2013-07-05 18:17:00,
2013-07-05 14:23:00,79.9,62.3,30.01,North,8,0.0,0.0,55,0.00,,,0.00,Wunderground v.1.15,2013-07-05 18:23:00,
2013-07-05 14:28:00,79.9,64.3,30.01,North,7,0.0,2.0,59,0.00,,,0.00,Wunderground v.1.15,2013-07-05 18:28:00,
2013-07-05 14:34:00,79.8,61.7,30.00,North,8,1.0,1.0,54,0.00,,,0.00,Wunderground v.1.15,2013-07-05 18:34:00,
2013-07-05 14:39:00,79.8,62.7,30.00,North,7,0.0,1.0,56,0.00,,,0.00,Wunderground v.1.15,2013-07-05 18:39:00,
2013-07-05 14:45:00,79.9,61.8,30.00,North,8,0.0,0.0,54,0.00,,,0.00,Wunderground v.1.15,2013-07-05 18:45:00,
2013-07-05 14:50:00,80.7,60.9,30.00,NNE,14,0.0,1.0,51,0.00,,,0.00,Wunderground v.1.15,2013-07-05 18:50:00,
2013-07-05 14:56:00,81.1,62.3,30.00,North,7,0.0,5.0,53,0.00,,,0.00,Wunderground v.1.15,2013-07-05 18:56:00,
2013-07-05 15:01:00,80.5,60.7,30.00,North,11,1.0,1.0,51,0.00,,,0.00,Wunderground v.1.15,2013-07-05 19:01:00,
2013-07-05 15:06:00,80.9,59.9,30.00,North,6,2.0,5.0,49,0.00,,,0.00,Wunderground v.1.15,2013-07-05 19:06:00,
2013-07-05 15:12:00,81.2,57.8,30.00,NNE,16,1.0,1.0,45,0.00,,,0.00,Wunderground v.1.15,2013-07-05 19:12:00,
2013-07-05 15:17:00,80.5,71.0,30.00,NNE,16,1.0,1.0,73,0.00,,,0.00,Wunderground v.1.15,2013-07-05 19:17:00,
2013-07-05 15:22:00,79.8,71.6,30.00,NNE,14,1.0,2.0,76,0.00,,,0.00,Wunderground v.1.15,2013-07-05 19:22:00,
2013-07-05 15:26:00,79.8,71.2,30.00,NNE,14,1.0,2.0,75,0.00,,,0.00,Wunderground v.1.15,2013-07-05 19:26:00,
2013-07-05 15:32:00,79.2,72.5,30.00,NNE,16,1.0,2.0,80,0.00,,,0.00,Wunderground v.1.15,2013-07-05 19:32:00,
2013-07-05 15:37:00,79.2,72.9,30.00,NNE,20,0.0,7.0,81,0.00,,,0.00,Wunderground v.1.15,2013-07-05 19:37:00,
2013-07-05 15:43:00,79.6,71.4,30.00,NNE,21,1.0,2.0,76,0.00,,,0.00,Wunderground v.1.15,2013-07-05 19:43:00,
2013-07-05 15:48:00,79.6,71.4,29.99,NNE,32,2.0,2.0,76,0.00,,,0.00,Wunderground v.1.15,2013-07-05 19:48:00,
2013-07-05 15:54:00,79.8,71.6,29.99,NNE,30,1.0,2.0,76,0.00,,,0.00,Wunderground v.1.15,2013-07-05 19:54:00,
2013-07-05 15:59:00,79.9,73.2,29.98,NNE,31,0.0,2.0,80,0.00,,,0.00,Wunderground v.1.15,2013-07-05 19:59:00,
2013-07-05 16:05:00,80.3,73.2,29.98,NNE,30,0.0,6.0,79,0.00,,,0.00,Wunderground v.1.15,2013-07-05 20:05:00,
2013-07-05 16:10:00,79.9,70.5,29.98,NNE,25,1.0,1.0,73,0.00,,,0.00,Wunderground v.1.15,2013-07-05 20:10:00,
2013-07-05 16:16:00,79.9,71.3,29.98,NNE,25,0.0,2.0,75,0.00,,,0.00,Wunderground v.1.15,2013-07-05 20:16:00,
2013-07-05 16:21:00,80.1,70.3,29.98,NNE,21,1.0,4.0,72,0.00,,,0.00,Wunderground v.1.15,2013-07-05 20:21:00,
2013-07-05 16:26:00,80.1,71.5,29.98,NNE,13,1.0,4.0,75,0.00,,,0.00,Wunderground v.1.15,2013-07-05 20:26:00,
2013-07-05 16:32:00,79.9,70.9,29.97,NNE,16,2.0,2.0,74,0.00,,,0.00,Wunderground v.1.15,2013-07-05 20:32:00,
2013-07-05 16:37:00,79.9,71.7,29.97,NNE,14,1.0,5.0,76,0.00,,,0.00,Wunderground v.1.15,2013-07-05 20:37:00,
2013-07-05 16:43:00,79.8,70.4,29.97,NNE,14,1.0,3.0,73,0.00,,,0.00,Wunderground v.1.15,2013-07-05 20:43:00,
2013-07-05 16:48:00,79.8,70.0,29.97,NNE,13,1.0,3.0,72,0.00,,,0.00,Wunderground v.1.15,2013-07-05 20:48:00,
2013-07-05 16:54:00,79.9,69.7,29.97,NNE,14,1.0,1.0,71,0.00,,,0.00,Wunderground v.1.15,2013-07-05 20:54:00,
2013-07-05 16:59:00,79.9,69.7,29.97,NNE,14,1.0,6.0,71,0.00,,,0.00,Wunderground v.1.15,2013-07-05 20:59:00,
2013-07-05 17:05:00,79.9,69.7,29.97,NNE,13,1.0,7.0,71,0.00,,,0.00,Wunderground v.1.15,2013-07-05 21:05:00,
2013-07-05 17:11:00,80.3,71.3,29.97,NNE,14,1.0,1.0,74,0.00,,,0.00,Wunderground v.1.15,2013-07-05 21:11:00,
2013-07-05 17:16:00,80.5,69.4,29.96,NNE,16,1.0,5.0,69,0.00,,,0.00,Wunderground v.1.15,2013-07-05 21:16:00,
2013-07-05 17:22:00,80.5,70.6,29.96,NNE,17,2.0,3.0,72,0.00,,,0.00,Wunderground v.1.15,2013-07-05 21:22:00,
2013-07-05 17:27:00,80.5,70.6,29.96,NNE,17,1.0,3.0,72,0.00,,,0.00,Wunderground v.1.15,2013-07-05 21:27:00,
2013-07-05 17:32:00,80.9,71.0,29.97,NNE,17,1.0,1.0,72,0.00,,,0.00,Wunderground v.1.15,2013-07-05 21:32:00,
2013-07-05 17:38:00,80.9,71.4,29.97,NNE,18,1.0,4.0,73,0.00,,,0.00,Wunderground v.1.15,2013-07-05 21:38:00,
2013-07-05 17:43:00,81.1,72.4,29.97,NNE,20,1.0,3.0,75,0.00,,,0.00,Wunderground v.1.15,2013-07-05 21:43:00,
2013-07-05 17:49:00,80.7,72.4,29.97,NNE,20,1.0,4.0,76,0.00,,,0.00,Wunderground v.1.15,2013-07-05 21:49:00,
2013-07-05 17:54:00,80.5,71.8,29.97,NNE,20,1.0,2.0,75,0.00,,,0.00,Wunderground v.1.15,2013-07-05 21:54:00,
2013-07-05 17:58:00,80.5,73.0,29.97,NNE,21,1.0,2.0,78,0.00,,,0.00,Wunderground v.1.15,2013-07-05 21:58:00,
2013-07-05 18:04:00,80.1,72.6,29.96,NNE,18,1.0,7.0,78,0.00,,,0.00,Wunderground v.1.15,2013-07-05 22:04:00,
2013-07-05 18:09:00,79.8,72.3,29.96,NNE,23,1.0,7.0,78,0.00,,,0.00,Wunderground v.1.15,2013-07-05 22:09:00,
2013-07-05 18:15:00,79.4,73.1,29.96,NNE,20,2.0,4.0,81,0.00,,,0.00,Wunderground v.1.15,2013-07-05 22:15:00,
2013-07-05 18:20:00,79.0,72.7,29.96,NNE,20,1.0,1.0,81,0.00,,,0.00,Wunderground v.1.15,2013-07-05 22:20:00,
2013-07-05 18:26:00,79.0,71.9,29.96,NNE,21,1.0,2.0,79,0.00,,,0.00,Wunderground v.1.15,2013-07-05 22:26:00,
2013-07-05 18:31:00,79.0,73.0,29.96,NNE,17,1.0,1.0,82,0.00,,,0.00,Wunderground v.1.15,2013-07-05 22:31:00,
2013-07-05 18:37:00,79.0,71.2,29.96,NNE,20,1.0,1.0,77,0.00,,,0.00,Wunderground v.1.15,2013-07-05 22:37:00,
2013-07-05 18:42:00,79.0,71.6,29.96,NNE,23,0.0,1.0,78,0.00,,,0.00,Wunderground v.1.15,2013-07-05 22:42:00,
2013-07-05 18:48:00,78.8,72.8,29.95,NNE,18,0.0,1.0,82,0.00,,,0.00,Wunderground v.1.15,2013-07-05 22:48:00,
2013-07-05 18:54:00,78.6,71.2,29.95,NNE,21,0.0,3.0,78,0.00,,,0.00,Wunderground v.1.15,2013-07-05 22:54:00,
2013-07-05 18:59:00,78.3,73.1,29.95,NNE,24,0.0,3.0,84,0.00,,,0.00,Wunderground v.1.15,2013-07-05 22:59:00,
2013-07-05 19:04:00,77.9,71.2,29.95,NNE,21,0.0,7.0,80,0.00,,,0.00,Wunderground v.1.15,2013-07-05 23:04:00,
2013-07-05 19:10:00,77.7,71.8,29.95,NNE,21,0.0,0.0,82,0.00,,,0.00,Wunderground v.1.15,2013-07-05 23:10:00,
2013-07-05 19:16:00,77.6,73.1,29.95,NNE,18,0.0,0.0,86,0.00,,,0.00,Wunderground v.1.15,2013-07-05 23:16:00,
2013-07-05 19:21:00,77.6,72.4,29.95,NNE,20,0.0,2.0,84,0.00,,,0.00,Wunderground v.1.15,2013-07-05 23:21:00,
2013-07-05 19:27:00,77.2,72.3,29.95,NNE,18,0.0,2.0,85,0.00,,,0.00,Wunderground v.1.15,2013-07-05 23:27:00,
2013-07-05 19:32:00,77.2,73.0,29.95,NNE,18,1.0,2.0,87,0.00,,,0.00,Wunderground v.1.15,2013-07-05 23:32:00,
2013-07-05 19:38:00,77.4,73.2,29.95,NNE,18,0.0,2.0,87,0.00,,,0.00,Wunderground v.1.15,2013-07-05 23:38:00,
2013-07-05 19:44:00,77.6,72.4,29.95,NNE,17,0.0,0.0,84,0.00,,,0.00,Wunderground v.1.15,2013-07-05 23:44:00,
2013-07-05 19:49:00,77.6,72.0,29.95,NNE,17,0.0,0.0,83,0.00,,,0.00,Wunderground v.1.15,2013-07-05 23:49:00,
2013-07-05 19:54:00,77.7,71.8,29.95,NNE,17,0.0,0.0,82,0.00,,,0.00,Wunderground v.1.15,2013-07-05 23:54:00,
2013-07-05 20:00:00,77.9,73.0,29.94,NNE,20,0.0,0.0,85,0.00,,,0.00,Wunderground v.1.15,2013-07-06 00:00:00,
2013-07-05 20:06:00,78.1,73.6,29.94,NNE,18,0.0,5.0,86,0.00,,,0.00,Wunderground v.1.15,2013-07-06 00:06:00,
2013-07-05 20:11:00,77.7,74.9,29.94,NNE,18,0.0,0.0,91,0.00,,,0.00,Wunderground v.1.15,2013-07-06 00:11:00,
2013-07-05 20:17:00,77.6,74.8,29.95,NNE,18,0.0,0.0,91,0.00,,,0.00,Wunderground v.1.15,2013-07-06 00:17:00,
2013-07-05 20:22:00,77.4,73.2,29.95,NNE,17,0.0,0.0,87,0.00,,,0.00,Wunderground v.1.15,2013-07-06 00:22:00,
2013-07-05 20:24:00,77.4,75.5,29.95,NNE,17,0.0,0.0,94,0.00,,,0.00,Wunderground v.1.15,2013-07-06 00:24:00,
2013-07-05 20:29:00,77.2,73.4,29.95,NNE,16,0.0,0.0,88,0.00,,,0.00,Wunderground v.1.15,2013-07-06 00:29:00,
2013-07-05 20:34:00,77.4,75.2,29.95,NNE,17,0.0,0.0,93,0.00,,,0.00,Wunderground v.1.15,2013-07-06 00:34:00,
2013-07-05 20:40:00,77.2,75.0,29.95,NNE,20,0.0,0.0,93,0.00,,,0.00,Wunderground v.1.15,2013-07-06 00:40:00,
2013-07-05 20:45:00,77.0,75.5,29.95,NNE,23,0.0,0.0,95,0.00,,,0.00,Wunderground v.1.15,2013-07-06 00:45:00,
2013-07-05 20:51:00,76.8,76.2,29.95,NNE,31,0.0,0.0,98,0.00,,,0.00,Wunderground v.1.15,2013-07-06 00:51:00,
2013-07-05 20:56:00,76.8,76.8,29.95,NNE,25,0.0,0.0,100,0.00,,,0.00,Wunderground v.1.15,2013-07-06 00:56:00,
2013-07-05 21:02:00,76.3,76.3,29.95,NNE,16,0.0,2.0,100,0.00,,,0.00,Wunderground v.1.15,2013-07-06 01:02:00,
2013-07-05 21:09:00,75.3,75.3,29.95,NNE,17,0.0,2.0,100,0.00,,,0.00,Wunderground v.1.15,2013-07-06 01:09:00,
2013-07-05 21:14:00,75.1,75.1,29.95,NNE,23,0.0,0.0,100,0.00,,,0.00,Wunderground v.1.15,2013-07-06 01:14:00,
2013-07-05 21:19:00,74.9,74.9,29.96,NNE,25,0.0,0.0,100,0.00,,,0.00,Wunderground v.1.15,2013-07-06 01:19:00,
2013-07-05 21:24:00,74.7,74.7,29.96,NNE,20,0.0,0.0,100,0.00,,,0.00,Wunderground v.1.15,2013-07-06 01:24:00,
2013-07-05 21:30:00,74.6,74.6,29.96,NNE,21,0.0,0.0,100,0.00,,,0.00,Wunderground v.1.15,2013-07-06 01:30:00,
2013-07-05 21:35:00,74.2,74.2,29.96,NNE,21,0.0,0.0,100,0.00,,,0.00,Wunderground v.1.15,2013-07-06 01:35:00,
2013-07-05 21:40:00,74.0,74.0,29.96,NNE,20,0.0,0.0,100,0.00,,,0.00,Wunderground v.1.15,2013-07-06 01:40:00,
2013-07-05 21:46:00,73.7,73.7,29.96,NNE,20,0.0,0.0,100,0.00,,,0.00,Wunderground v.1.15,2013-07-06 01:46:00,
2013-07-05 21:51:00,73.7,73.7,29.96,NNE,21,0.0,0.0,100,0.00,,,0.00,Wunderground v.1.15,2013-07-06 01:51:00,
2013-07-05 21:56:00,72.7,72.7,29.96,NNE,24,0.0,0.0,100,0.00,,,0.00,Wunderground v.1.15,2013-07-06 01:56:00,
2013-07-05 22:02:00,71.5,71.5,29.97,West,277,0.0,0.0,100,0.00,,,0.00,Wunderground v.1.15,2013-07-06 02:02:00,
2013-07-05 22:09:00,71.5,71.5,29.97,West,277,0.0,0.0,100,0.00,,,0.00,Wunderground v.1.15,2013-07-06 02:09:00,
2013-07-05 22:14:00,71.6,71.6,29.97,West,277,0.0,0.0,100,0.00,,,0.00,Wunderground v.1.15,2013-07-06 02:14:00,
2013-07-05 22:17:00,71.6,71.6,29.97,West,277,0.0,0.0,100,0.00,,,0.00,Wunderground v.1.15,2013-07-06 02:17:00,
2013-07-05 22:24:00,71.5,71.5,29.97,West,277,0.0,0.0,100,0.00,,,0.00,Wunderground v.1.15,2013-07-06 02:24:00,
2013-07-05 22:29:00,71.5,71.5,29.97,West,277,0.0,0.0,100,0.00,,,0.00,Wunderground v.1.15,2013-07-06 02:29:00,
2013-07-05 22:34:00,71.3,71.3,29.97,West,277,0.0,0.0,100,0.00,,,0.00,Wunderground v.1.15,2013-07-06 02:34:00,
2013-07-05 22:39:00,71.1,71.1,29.97,West,277,0.0,0.0,100,0.00,,,0.00,Wunderground v.1.15,2013-07-06 02:39:00,
2013-07-05 22:45:00,70.9,70.9,29.97,West,277,0.0,0.0,100,0.00,,,0.00,Wunderground v.1.15,2013-07-06 02:45:00,
2013-07-05 22:49:00,70.8,70.8,29.97,West,277,0.0,0.0,100,0.00,,,0.00,Wunderground v.1.15,2013-07-06 02:49:00,
2013-07-05 22:54:00,70.4,70.4,29.97,West,277,0.0,0.0,100,0.00,,,0.00,Wunderground v.1.15,2013-07-06 02:54:00,
2013-07-05 22:59:00,69.9,69.9,29.97,West,277,0.0,0.0,100,0.00,,,0.00,Wunderground v.1.15,2013-07-06 02:59:00,
2013-07-05 23:04:00,69.8,69.8,29.97,West,277,0.0,1.0,100,0.00,,,0.00,Wunderground v.1.15,2013-07-06 03:04:00,
2013-07-05 23:09:00,69.6,69.6,29.97,West,277,0.0,1.0,100,0.00,,,0.00,Wunderground v.1.15,2013-07-06 03:09:00,
2013-07-05 23:15:00,69.6,69.6,29.97,West,277,0.0,0.0,100,0.00,,,0.00,Wunderground v.1.15,2013-07-06 03:15:00,
2013-07-05 23:20:00,69.4,69.4,29.97,West,277,0.0,0.0,100,0.00,,,0.00,Wunderground v.1.15,2013-07-06 03:20:00,
2013-07-05 23:26:00,69.4,69.4,29.97,West,277,0.0,0.0,100,0.00,,,0.00,Wunderground v.1.15,2013-07-06 03:26:00,
2013-07-05 23:31:00,69.3,69.3,29.98,West,275,0.0,0.0,100,0.00,,,0.00,Wunderground v.1.15,2013-07-06 03:31:00,
2013-07-05 23:37:00,69.1,69.1,29.98,West,275,0.0,0.0,100,0.00,,,0.00,Wunderground v.1.15,2013-07-06 03:37:00,
2013-07-05 23:41:00,68.9,68.9,29.98,West,275,0.0,0.0,100,0.00,,,0.00,Wunderground v.1.15,2013-07-06 03:41:00,
2013-07-05 23:47:00,68.8,68.8,29.98,West,275,0.0,0.0,100,0.00,,,0.00,Wunderground v.1.15,2013-07-06 03:47:00,
2013-07-05 23:52:00,68.8,68.8,29.98,West,275,0.0,0.0,100,0.00,,,0.00,Wunderground v.1.15,2013-07-06 03:52:00,
2013-07-05 23:58:00,68.6,68.6,29.98,West,274,0.0,0.0,100,0.00,,,0.00,Wunderground v.1.15,2013-07-06 03:58:00,
2013-07-05 23:59:00,68.6,68.6,29.99,West,274,0.0,0.0,100,0.00,,,0.00,Wunderground v.1.15,2013-07-06 03:59:00,